Notices

What's New in latest Release from April 7th, 2021:

- Updated Glossary, including Speed of Maximum Gust, and Total Hourly Precipitation

- Updated national and regional climate services offices contacts and prices information

- Addition of station inventory lists for 1981-2010, 1971-2000, and 1961-1990 Normals.

If you haven't already, please take our survey and provide feedback about our website: https://eccc.sondage-survey.ca/f/LanguageSelection.aspx?s=442ca660-fcf1-47c0-95a9-59707d6fd709

Hourly Data Report for June 20, 2004

SHERBROOKE A
QUEBEC

45°26'00.000" N
71°41'00.000" W
241.40 m
7028124
71610
YSC

Download Data

Hourly Data (June 2004)
Hourly Data Report for June 20, 2004
TIME
LST
Temp Definition
°C
Dew Point Definition
°C
Rel Hum Definition
%
Precip. Amount Definition
mm

Wind Dir Definition
10's deg

Wind Spd Definition
km/h
Visibility Definition
km
Stn Press Definition
kPa
Hmdx Definition


Wind Chill Definition


Weather Definition


00:00 5.1 1.3 76   23 7 15.0 98.27      
01:00 3.2 0.8 84   26 6 15.0 98.26      
02:00 5.3 1.2 75   25 9 15.0 98.28      
03:00 2.5 0.0 84     0 15.0 98.31      
04:00 3.4 0.4 81   26 9 15.0 98.37      
05:00 6.3 2.6 77   27 9 15.0 98.42      
06:00 8.7 4.0 72   27 11 15.0 98.45      
07:00 10.6 3.9 63   28 15 24.1 98.48     Clear
08:00 12.2 4.6 60   29 15 24.1 98.46     Mainly Clear
09:00 13.8 5.2 56   29 15 24.1 98.44     Mainly Clear
10:00 15.2 5.9 54   29 19 24.1 98.40     Mainly Clear
11:00 15.8 5.2 49   26 22 24.1 98.34     Mainly Clear
12:00 16.3 3.8 43   25 24 24.1 98.26     Mainly Clear
13:00 18.1 5.6 44   30 22 24.1 98.22     Mainly Clear
14:00 16.8 5.0 46   27 17 24.1 98.19     Mostly Cloudy
15:00 17.7 5.5 45   27 24 24.1 98.13     Mostly Cloudy
16:00 19.2 7.5 47   27 24 24.1 98.06     Mostly Cloudy
17:00 18.7 6.5 45   26 22 15.0 98.04      
18:00 17.7 6.8 49   26 17 15.0 98.07      
19:00 17.2 6.4 49   26 15 15.0 98.08      
20:00 16.8 6.1 49   26 13 15.0 98.11      
21:00 15.3 7.1 58   26 11 15.0 98.16      
22:00 14.9 7.1 60   26 11 15.0 98.17      
23:00 13.5 6.5 63   23 6 15.0 98.15      

Notes on Data Quality.

Legend

  • E = Estimated
  • M = Missing
  • NA = Not Available*
  • [empty] = Indicates an unobserved value
Date modified: